STARLINK-6372, 57348

Orbit data source: Space-Track

STARLINK-6372, 57348 is a payload satellite owned by SpaceX/Seattle (US) in LEO that was launched on Sun, 16 Jul 2023 UTC via an FALCON 9 launch vehicle from the Air Force Eastern Test Range (AFETR). Payload-class satellites include a variety of spacecraft equipped with specific instruments for various scientific and technological missions. These include communications satellites like Starlink; space stations such as the ISS; scientific satellites like the Hubble; Earth observation satellites from companies like Planet Labs, Umbra, and HawkEye 360; GPS; miniature CubeSats for education and research; and military/defense satellites.

Loading next visibility...
Identifier
57348, 2023-099W
Orbit
LEO
Country
Flag of USUS
Related business
Manufacturer
SpaceX/Seattle
Mission
Operational Commercial Communications
Bus & Motor
STARLINK, Unknown motor
Mass
305 kg wet, ~290 kg dry
Launch date (UTC)
2023-07-16 (3 years ago)
Launch vehicle
FALCON 9
Launch site
Air Force Eastern Test Range (AFETR)
Object type
Payload
Rocket body
Debris
Shape & HBR
Box + 1 Pan, 10.1 m
Radar Cross Section
11.087 m², Large (>1 m²)

Expand to show TLE details & history
Last TLE update: 2 days ago

TLE from 2 days ago
0 STARLINK-6372
1 57348U 23099W   26171.01480408  .00000336  00000-0  21746-4 0  9998
2 57348  43.0037  31.2901 0001593 265.5311  94.5359 15.27580945161765
Epoch: 2026-06-20T00:21Z
TLE epoch observation values (Epoch: 2026-06-20T00:21:19.072Z)
Latitude
-0°
Longitude
117.72513°
Altitude
482.909 km
Speed
7.626 km/s
True Right ascension
02h 05m 09s
True Declination
0° 00' 00"
Sunlit
Object was in daylight at epoch
Visualization orbit readout
Latitude
Unknown
Longitude
Unknown
Altitude
Unknown
Speed
Unknown
Apparent Right ascension
Unknown
Apparent Declination
Unknown
Sunlit
N/A
Visualization observer readout
Local Sidereal Time
21:25:21
Azimuth
Unknown
Elevation
Unknown
Doppler factor
Unknown
Orbital elements
Apogee altitude
486.084 km
Perigee altitude
483.898 km
Semi-major axis
6,863.128 km
Eccentricity
0.00016
Inclination
43.0037°
RAAN
31.2901°
Arg. of periapsis
265.5311°
True anomaly
94.5541°
Mean anomaly
94.5359°
Eccentric anomaly
94.545°
Mean motion
3.81733 °/min
Orbital period
94.31 mins
BSTAR
0.000021746
Loading maneuver chart data...
Computing Atmospheric mass density...
Loading historical data...
Loading historical data...
Loading historical data...
Loading historical data...
Loading historical data...
Loading historical data...
Loading historical data...

Documentation

Showing up to 5 results
|